Find Starlink 3976

NORAD ID: 52673 Int'l Des: 2022-053 Owner: SPXS Country: US Constellation: starlink operational
LEOCIRCULAR

リアルタイム位置

3D地球を読み込み中...

Starlink 3976について

説明を読み込み中...

次回通過

Passes for default location (London). Set your location on the main map for personalized predictions.

高度履歴

Loading altitude history...

軌道要素

1 52673U 22053T 26105.92918831 .00000131 00000-0 26301-4 0 9991
2 52673 53.2181 346.9447 0001407 89.6952 270.4202 15.08839481216668
Epoch: Apr 15, 2026 • Age: 10 hours

現在のステータス

高度 539.6 km
速度 7.59 km/s
衛星直下点 12.80°N, 31.75°E
打ち上げ日 May 18, 2022
運用期間 3.9 years
タイプ internet

技術仕様

分類 Payload
質量 297.00 kg
乾燥質量 275.00 kg
総質量 297.00 kg
長さ 0.20 m
直径 2.80 m
スパン 9.00 m
形状 Box + pan
製造者 SPXS
バスタイプ Starlink
フェーズステータス In Orbit
所有者/国 SPXS/US

Most Searched